Вернуться в каталог

STARLINK-3917

АктивенСвязьVLEO
NORAD 52588·PAYLOAD·🇺🇸 United States

Запущен May 13, 2022 с Vandenberg Space Force Base

Loading…

Ближайшие Пролёты (ближайшие 24 часа)

TLE

СвежийSource: CelesTrak SupGP

Эпоха: Sep 15, 2026, 01:16 UTC

1 52588C 22051BE  26258.05326389  .00035197  00000+0  10072-2 0  2581
2 52588  53.1609 343.5990 0001019  85.5447 319.4757 15.35375748    16

Отслеживайте STARLINK-3917 в реальном времени с AllMySat

Download on the App Store